Hurricane Symbol View the latest observations near Atlantic Tropical Storm Arlene.

Station FTPC1 - 9414290 - San Francisco, CA Image indicating link to RSS feed of recent meteorological observations for station FTPC1


Conditions at FTPC1 as of
(5:00 pm PDT on 06/02/2023)
0000 GMT on 06/03/2023:
     

Click on the graph icon in the table below to see a time series plot of the last five days of that observation.

5-day plot - Wind Direction Wind Direction (WDIR):WSW ( 250 deg true )
5-day plot - Wind Speed Wind Speed (WSPD): 14.0 kts
5-day plot - Wind Gust Wind Gust (GST): 18.1 kts
5-day plot - Atmospheric Pressure Atmospheric Pressure (PRES):29.95 in
5-day plot - Air Temperature Air Temperature (ATMP): 56.5 °F
5-day plot - Water Temperature Water Temperature (WTMP): 61.9 °F
5-day plot - Wind Speed at 10 Meters Wind Speed at 10 meters (WSPD10M): 13.6 kts
5-day plot - Wind Speed at 20 Meters Wind Speed at 20 meters (WSPD20M): 15.5 kts
5-day plot -  Wind Speed, Wind Gust and Atmospheric Pressure Combined plot of Wind Speed, Gust, and Air Pressure
NOS Water Level Observation Network Water Level
Previous observations
TIME
(PDT)
5-day plot - Wind Direction
WDIR
 
5-day plot - Wind Speed
WSPD
kts
5-day plot - Wind Gust
GST
kts
5-day plot - Wave Height
WVHT
ft
5-day plot - Dominant Wave Period
DPD
sec
5-day plot - Average Wave Period
APD
sec
5-day plot - Mean Wave Direction
MWD
 
5-day plot - Atmospheric Pressure
PRES
in
5-day plot - Pressure Tendency
PTDY
in
5-day plot - Air Temperature
ATMP
°F
5-day plot - Water Temperature
WTMP
°F
5-day plot - Dew Point
DEWP
°F
5-day plot - Salinity
SAL
psu
5-day plot - Visibility
VIS
nmi
5-day plot - Tide (above MLLW)
TIDE
ft
2023-06-02 04:54 pmWSW 13.0 20.0----29.96- 56.5 61.9----
2023-06-02 04:48 pmWSW 17.1 21.0----29.96- 55.9 62.1----
2023-06-02 04:42 pmWSW 12.0 21.0----29.96- 56.5 62.1----
2023-06-02 04:36 pmWSW 15.0 24.1----29.96- 56.5 61.9----
2023-06-02 04:30 pmWSW 12.0 21.0----29.96- 57.2 61.7----
2023-06-02 04:24 pmWSW 12.0 22.0----29.96- 56.8 61.5----
2023-06-02 04:18 pm SW 14.0 20.0----29.96- 56.5 61.5----
2023-06-02 04:12 pmWSW 14.0 20.0----29.96- 56.7 61.5----
2023-06-02 04:06 pmWSW 12.0 18.1----29.96- 56.8 61.0----
2023-06-02 04:00 pmWSW 13.0 18.1----29.97-0.03 56.7 60.8----
2023-06-02 03:54 pm SW 15.0 21.0----29.97- 56.1 60.6----
2023-06-02 03:48 pmWSW 14.0 21.0----29.97- 56.5 60.8----
2023-06-02 03:42 pmWSW 15.0 24.1----29.97- 56.3 60.8----
2023-06-02 03:36 pm SW 14.0 19.0----29.97- 56.8 60.6----
2023-06-02 03:30 pmWSW 11.1 21.0----29.97- 57.0 60.6----
2023-06-02 03:24 pm SW 13.0 22.9----29.97- 57.0 60.4----
2023-06-02 03:18 pm-------29.97- 56.7 60.6----
2023-06-02 03:12 pm-------29.98- 56.8 60.3----
2023-06-02 03:06 pm-------29.98- 57.7 59.9----
2023-06-02 03:00 pmWSW 12.0 19.0----29.98-0.02 57.0 60.1----
2023-06-02 02:54 pmWSW 9.9 18.1----29.98- 57.6 60.3----
2023-06-02 02:48 pmWSW 12.0 18.1----29.98- 56.7 60.1----
2023-06-02 02:42 pmWSW 9.9 15.0----29.98- 57.2 60.3----
2023-06-02 02:36 pmWSW 9.9 19.0----29.98- 56.8 60.4----
2023-06-02 02:30 pmWSW 11.1 19.0----29.98- 56.8 59.4----
2023-06-02 02:24 pmWSW 9.9 19.0----29.98- 57.2 59.4----
2023-06-02 02:18 pmWSW 9.9 19.0----29.98- 56.8 59.5----
2023-06-02 02:12 pmWSW 8.9 19.0----29.98- 57.2 59.4----
2023-06-02 02:06 pm SW 8.9 17.1----29.98- 57.2 59.4----
2023-06-02 02:00 pmWSW 9.9 17.1------ 57.2 59.4----
2023-06-02 01:54 pm SW 8.0 12.0------ 57.7 59.4----
2023-06-02 01:48 pm-------29.98- 57.4 59.7----
2023-06-02 01:42 pm-------29.98- 57.0 59.7----
2023-06-02 01:36 pm-------29.99- 56.7 59.9----
2023-06-02 01:30 pmWSW 7.0 13.0----29.99- 56.8 60.1----
2023-06-02 01:24 pm SW 8.9 17.1----29.99- 55.6 60.1----
2023-06-02 01:18 pmWSW 9.9 15.0----29.99- 55.4 60.1----
2023-06-02 01:12 pm SW 8.9 14.0----30.00- 55.6 59.9----
2023-06-02 01:06 pmWSW 11.1 15.0----30.00- 55.0 59.9----
2023-06-02 01:00 pmWSW 7.0 11.1----30.00+0.00 55.6 59.9----
2023-06-02 12:54 pm W 9.9 17.1----30.00- 55.2 60.1----
2023-06-02 12:48 pm-------30.00- 55.6 60.1----
2023-06-02 12:42 pm-------30.00- 55.6 60.3----
2023-06-02 12:36 pm-------30.00- 55.0 60.3----
2023-06-02 12:30 pmWSW 8.0 14.0----30.00- 55.0 60.4----
2023-06-02 12:24 pmWSW 8.9 15.0----30.01- 54.7 60.4----
2023-06-02 12:18 pmWSW 7.0 14.0----30.00- 55.2 60.4----
2023-06-02 12:12 pm W 9.9 14.0----30.00- 55.0 60.3----
2023-06-02 12:06 pm W 7.0 13.0----30.00- 55.0 60.1----
2023-06-02 12:00 pm W 11.1 15.0----30.00+0.01 54.7 60.3----
2023-06-02 11:54 am W 11.1 17.1----30.00- 54.9 60.4----
2023-06-02 11:48 am W 9.9 15.0----30.00- 55.2 60.3----
2023-06-02 11:42 am W 11.1 15.9----30.00- 55.6 60.3----
2023-06-02 11:36 amWSW 9.9 14.0----30.00- 55.8 60.3----
2023-06-02 11:30 am W 9.9 15.0----30.00- 56.5 60.3----
2023-06-02 11:24 amWSW 9.9 17.1----30.00- 56.3 60.4----
2023-06-02 11:18 amWSW 6.0 14.0----30.00- 56.7 60.4----
2023-06-02 11:12 amWSW 9.9 15.9----30.00- 56.8 60.8----
2023-06-02 11:06 amWSW 6.0 15.9----30.00- 56.3 60.8----
2023-06-02 11:00 amWSW 9.9 14.0----30.00+0.01 56.1-----
2023-06-02 10:54 am SW 8.9 12.0----30.00- 56.7-----
2023-06-02 10:48 am SW 6.0 12.0----29.99- 56.5 60.6----
2023-06-02 10:42 am SW 9.9 14.0----29.99- 55.9 60.1----
2023-06-02 10:36 am SW 8.0 13.0----30.00- 56.3 61.2----
2023-06-02 10:30 amWSW 6.0 12.0----30.00- 56.5 60.6----
2023-06-02 10:24 am SW 5.1 11.1----30.00- 56.5 61.3----
2023-06-02 10:18 amSSW 8.0 11.1----30.00- 55.9 60.6----
2023-06-02 10:12 amSSW 9.9 14.0----30.00- 56.1 60.3----
2023-06-02 10:06 am S 8.0 11.1----30.00- 56.5 60.4----
2023-06-02 10:00 am S 6.0 11.1----30.00+0.02 56.3 60.6----
2023-06-02 09:54 am S 8.0 12.0----30.00- 55.6 61.0----
2023-06-02 09:48 am S 5.1 11.1----30.00- 56.1 61.3----
2023-06-02 09:42 am SW 6.0 11.1----30.00- 55.6 61.3----
2023-06-02 09:36 am SW 8.9 13.0----30.00- 55.0 61.3----
2023-06-02 09:30 am SW 8.9 12.0----30.00- 55.0 61.3----
2023-06-02 09:24 amSSW 8.0 12.0----29.99- 55.4 61.5----
2023-06-02 09:18 amSSW 6.0 11.1----29.99- 55.4 61.7----
2023-06-02 09:12 amSSW 6.0 12.0----29.99- 54.5 61.5----
2023-06-02 09:06 am SW 9.9 13.0----29.99- 54.3 61.7----
2023-06-02 09:00 amSSW 7.0 12.0----29.99+0.03 54.9 61.9----
2023-06-02 08:54 amSSW 8.0 13.0----29.99- 54.5 62.2----
2023-06-02 08:48 am S 8.0 11.1----29.99- 54.7 62.1----
2023-06-02 08:42 am S 8.0 11.1----29.99- 54.3 62.1----
2023-06-02 08:36 am SW 8.0 13.0----29.99- 54.1 62.4----
2023-06-02 08:30 amSSW 7.0 11.1----29.99- 54.3 62.4----
2023-06-02 08:24 amSSW 6.0 11.1----29.99- 54.3 62.4----
2023-06-02 08:18 am S 6.0 12.0----29.98- 54.1 62.4----
2023-06-02 08:12 amSSW 5.1 11.1----29.98- 54.0 62.4----
2023-06-02 08:06 amSSW 8.0 12.0----29.98- 54.0 62.2----
2023-06-02 08:00 am S 5.1 8.9----29.98+0.04 54.1 62.2----
2023-06-02 07:54 am S 6.0 9.9----29.98- 53.8 62.2----
2023-06-02 07:48 am S 2.9 6.0----29.98- 53.8 62.2----
2023-06-02 07:42 am W 1.9 8.9----29.98- 53.4 62.1----
2023-06-02 07:36 amSSW 5.1 9.9----29.98- 53.2 62.1----
2023-06-02 07:30 am SW 6.0 12.0----29.98- 53.2 61.7----
2023-06-02 07:24 amSSW 2.9 8.0----29.98- 53.1 61.5----
2023-06-02 07:18 amSSW 6.0 9.9----29.98- 52.7 61.2----
2023-06-02 07:12 amSSW 7.0 11.1----29.97- 52.7 61.0----
2023-06-02 07:06 am SW 2.9 6.0----29.97- 52.7 61.0----
2023-06-02 07:00 amSSW 2.9 8.9----29.97+0.04 52.5 60.8----
2023-06-02 06:54 am S 7.0 9.9----29.97- 52.5 61.0----
2023-06-02 06:48 am-------29.97- 52.3 61.0----
2023-06-02 06:42 am-------29.97- 52.3 60.8----
2023-06-02 06:36 am-------29.97- 52.3 60.8----
2023-06-02 06:30 amSSW 8.9 13.0----29.97- 52.2 60.8----
2023-06-02 06:24 am S 6.0 11.1----29.97- 52.5 60.8----
2023-06-02 06:18 am S 4.1 7.0----29.96- 52.7 60.8----
2023-06-02 06:12 amSSW 1.0 6.0----29.96- 52.7 60.6----
2023-06-02 06:06 am S 2.9 8.0----29.96- 52.5 60.8----
2023-06-02 06:00 am S 1.9 2.9----29.96+0.03 52.5 60.6----
2023-06-02 05:54 amSSW 2.9 8.0----29.96- 52.5 60.3----
2023-06-02 05:48 am SW 4.1 6.0----29.95- 52.3 60.3----
2023-06-02 05:42 amSSW 5.1 6.0----29.95- 52.3 60.3----
2023-06-02 05:36 amSSW 4.1 6.0----29.95- 52.5 60.3----
2023-06-02 05:30 am SW 2.9 7.0----29.95- 52.5 60.1----
2023-06-02 05:24 am S 4.1 8.0----29.95- 52.3 60.1----
2023-06-02 05:18 am SW 4.1 8.0----29.95- 52.3 59.9----
2023-06-02 05:12 am S 5.1 9.9----29.94- 52.3 59.9----
2023-06-02 05:06 am S 2.9 6.0----29.94- 52.3 59.5----
2023-06-02 05:00 amSSW 2.9 5.1----29.94+0.01 52.5 59.4----
2023-06-02 04:54 amSSW 1.9 6.0----29.94- 52.5 59.4----
2023-06-02 04:48 am S 5.1 6.0----29.94- 52.5 59.2----
2023-06-02 04:42 amSSW 2.9 6.0----29.94- 52.5 59.2----
2023-06-02 04:36 am SW 5.1 7.0----29.94- 52.7 59.0----
2023-06-02 04:30 amSSW 4.1 8.0----29.94- 52.7 59.0----
2023-06-02 04:24 am S 6.0 8.0----29.94- 52.7 58.8----
2023-06-02 04:18 am S 1.9 5.1----29.94- 52.5 58.8----
2023-06-02 04:12 am SW 2.9 7.0----29.93- 52.5 58.8----
2023-06-02 04:06 am S 5.1 7.0----29.93- 52.5 59.0----
2023-06-02 04:00 am S 5.1 8.9----29.94+0.01 52.7 58.8----
2023-06-02 03:54 am SW 1.9 6.0----29.93- 52.9 58.6----
2023-06-02 03:48 am S 6.0 7.0----29.93- 52.9 58.6----
2023-06-02 03:42 amSSW 2.9 6.0----29.93- 52.9 58.8----
2023-06-02 03:36 am S 4.1 6.0----29.93- 52.9 58.8----
2023-06-02 03:30 am S 5.1 8.9----29.93- 52.9 58.8----
2023-06-02 03:24 am S 4.1 6.0----29.93- 52.9 58.8----
2023-06-02 03:18 am SW 2.9 6.0----29.93- 52.9 59.0----
2023-06-02 03:12 amSSW 7.0 8.9----29.93- 52.9 59.0----
2023-06-02 03:06 am SW 5.1 8.9----29.93- 52.9 59.0----
2023-06-02 03:00 am- 0.0 1.9----29.93+0.00 52.9 59.2----
2023-06-02 02:54 amSSE 1.9 6.0----29.93- 52.9 59.2----
2023-06-02 02:48 amSSW 4.1 6.0----29.93- 52.9 59.4----
2023-06-02 02:42 am S 2.9 6.0----29.93- 52.9 59.4----
2023-06-02 02:36 amSSW 2.9 6.0----29.93- 52.9 59.5----
2023-06-02 02:30 am SW 5.1 7.0----29.93- 52.7 59.4----
2023-06-02 02:24 amSSW 4.1 8.0----29.93- 52.9 59.5----
2023-06-02 02:18 am S 4.1 8.0----29.93- 52.9 59.5----
2023-06-02 02:12 amSSW 6.0 9.9----29.93- 52.9 59.5----
2023-06-02 02:06 am S 4.1 7.0----29.93- 52.9 59.5----
2023-06-02 02:00 amSSW 1.9 12.0----29.93+0.01 52.9 59.5----
2023-06-02 01:54 am S 4.1 8.9----29.93- 52.9 59.4----
2023-06-02 01:48 amSSW 2.9 9.9----29.93- 52.9 59.0----
2023-06-02 01:42 am SW 6.0 13.0----29.93- 52.9 58.8----
2023-06-02 01:36 amSSW 4.1 8.9----29.93- 52.7 58.8----
2023-06-02 01:30 am SW 7.0 11.1----29.93- 52.7 58.8----
2023-06-02 01:24 amSSW 5.1 8.9----29.93- 52.7 58.8----
2023-06-02 01:18 am SW 5.1 12.0----29.93- 52.7-----
2023-06-02 01:12 amSSW 7.0 14.0----29.93- 52.7-----
2023-06-02 01:06 am SW 1.9 6.0----29.93- 52.9-----
2023-06-02 01:00 am S 6.0 11.1----29.93+0.01 52.7 58.8----
2023-06-02 12:54 amSSW 4.1 9.9----29.93- 52.7 58.8----
2023-06-02 12:48 amSSW 4.1 11.1----29.93- 52.7 58.8----
2023-06-02 12:42 am SW 5.1 11.1----29.93- 52.7 58.8----
2023-06-02 12:36 am SW 1.9 8.0----29.93- 52.7 58.8----
2023-06-02 12:30 am SW 5.1 8.9----29.93- 52.7 59.0----
2023-06-02 12:24 am SW 8.0 11.1----29.93- 52.7 59.0----
2023-06-02 12:18 amSSW 6.0 13.0----29.93- 52.7-----
2023-06-02 12:12 amSSW 7.0 14.0----29.93- 52.7-----
2023-06-02 12:06 amSSW 8.9 15.9----29.92- 52.7-----
2023-06-02 12:00 amSSW 6.0 12.0----29.93+0.03 52.9 59.0----
2023-06-01 11:54 pmSSW 8.9 12.0----29.93- 52.7 59.0----
2023-06-01 11:48 pm SW 5.1 13.0----29.92- 52.9 59.0----
2023-06-01 11:42 pmSSW 8.9 14.0----29.92- 52.9 59.0----
2023-06-01 11:36 pmSSW 8.0 13.0----29.92- 52.9 59.2----
2023-06-01 11:30 pmSSW 8.0 12.0----29.92- 52.9 59.0----
2023-06-01 11:24 pmSSW 7.0 12.0----29.93- 52.9 59.2----
2023-06-01 11:18 pmSSW 5.1 9.9----29.93- 52.9 59.2----
2023-06-01 11:12 pmSSW 5.1 12.0----29.93- 52.9 59.2----
2023-06-01 11:06 pmSSW 6.0 12.0----29.92- 52.9 59.2----
2023-06-01 11:00 pmSSW 7.0 14.0----29.92+0.03 52.9 59.2----
2023-06-01 10:54 pm S 4.1 7.0----29.93- 52.9 59.0----
2023-06-01 10:48 pmSSW 5.1 9.9----29.93- 52.9 59.0----
2023-06-01 10:42 pm S 6.0 15.0----29.93- 53.1 59.0----
2023-06-01 10:36 pmSSW 7.0 12.0----29.93- 53.1 59.0----
2023-06-01 10:30 pmSSW 8.0 12.0----29.93- 53.1 59.0----
2023-06-01 10:24 pmSSW 7.0 15.0----29.93- 53.2 59.0----
2023-06-01 10:18 pm-------29.92- 53.2 59.0----
2023-06-01 10:12 pm-------29.92- 53.4 59.0----
2023-06-01 10:06 pm-------29.91- 53.4 59.0----
2023-06-01 10:00 pm SW 15.0 22.0----29.91+0.02 53.4 58.8----
2023-06-01 09:54 pm SW 14.0 22.9----29.91- 53.4 58.8----
2023-06-01 09:48 pm SW 14.0 25.1----29.91- 53.6 58.8----
2023-06-01 09:42 pm SW 13.0 19.0----29.91- 53.6 58.8----
2023-06-01 09:36 pm SW 12.0 19.0----29.91- 53.8 58.8----
2023-06-01 09:30 pm SW 12.0 17.1----29.91- 53.6 59.0----
2023-06-01 09:24 pm SW 9.9 17.1----29.91- 53.8 59.0----
2023-06-01 09:18 pmWSW 7.0 15.9----29.90- 53.8 59.0----
2023-06-01 09:12 pm SW 12.0 19.0----29.90- 53.8 59.0----
2023-06-01 09:06 pm SW 9.9 18.1----29.90- 53.8 59.0----
2023-06-01 09:00 pm SW 11.1 18.1----29.90+0.01 53.8 59.2----
2023-06-01 08:54 pm SW 9.9 18.1----29.90- 54.0 59.2----
2023-06-01 08:48 pm SW 14.0 19.0----29.89- 54.0-----
2023-06-01 08:42 pmWSW 15.0 20.0----29.89- 54.1-----
2023-06-01 08:36 pmWSW 15.0 19.0----29.89- 54.1-----
2023-06-01 08:30 pmWSW 13.0 22.0----29.89- 54.3 59.0----
2023-06-01 08:24 pmWSW 12.0 20.0----29.89- 54.5 59.0----
2023-06-01 08:18 pmWSW 12.0 18.1----29.89- 54.7 59.2----
2023-06-01 08:12 pm SW 15.0 19.0----29.89- 54.7 60.6----
2023-06-01 08:06 pmWSW 12.0 19.0----29.89- 54.9 60.6----
2023-06-01 08:00 pmWSW 13.0 20.0----29.89+0.00 55.0 60.8----
2023-06-01 07:54 pm SW 13.0 19.0----29.89- 55.2 60.6----
2023-06-01 07:48 pmWSW 14.0 22.0----29.89- 55.2 60.6----
2023-06-01 07:42 pmWSW 12.0 19.0----29.89- 55.4 60.4----
2023-06-01 07:36 pmWSW 12.0 19.0----29.89- 55.6 60.4----
2023-06-01 07:30 pmWSW 9.9 18.1----29.89- 55.8 60.6----
2023-06-01 07:24 pmWSW 11.1 18.1----29.89- 55.8 60.6----
2023-06-01 07:18 pmWSW 11.1 17.1----29.89- 55.8 60.6----
2023-06-01 07:12 pmWSW 11.1 17.1----29.89- 55.8 60.6----
2023-06-01 07:06 pmWSW 11.1 21.0----29.89- 55.9 60.6----
2023-06-01 07:00 pm SW 12.0 19.0----29.89-0.01 55.8 60.6----
2023-06-01 06:54 pmWSW 11.1 19.0----29.89- 55.9 60.8----
2023-06-01 06:48 pm SW 15.0 20.0----29.89- 55.8 60.8----
2023-06-01 06:42 pmWSW 12.0 20.0----29.89- 55.8 61.0----
2023-06-01 06:36 pmWSW 13.0 20.0----29.89- 55.8 61.0----
2023-06-01 06:30 pmWSW 13.0 20.0----29.89- 55.8 61.5----
2023-06-01 06:24 pm W 12.0 18.1----29.89- 55.8 61.5----
2023-06-01 06:18 pmWSW 12.0 19.0----29.89- 55.8 61.5----
2023-06-01 06:12 pm W 12.0 19.0----29.89- 56.1 61.7----
2023-06-01 06:06 pmWSW 11.1 15.9----29.89- 56.5 61.7----
2023-06-01 06:00 pm SW 12.0 18.1----29.89-0.02 56.3 61.7----
2023-06-01 05:54 pmWSW 13.0 21.0----29.88- 56.5 61.7----
2023-06-01 05:48 pm SW 12.0 20.0----29.88- 56.3 61.9----
2023-06-01 05:42 pm SW 8.0 17.1----29.89- 56.7 61.9----
2023-06-01 05:36 pm SW 11.1 19.0----29.89- 56.5 62.1----
2023-06-01 05:30 pm SW 11.1 19.0----29.89- 56.3 62.1----
2023-06-01 05:24 pm SW 9.9 19.0----29.89- 56.7 62.1----
2023-06-01 05:18 pm SW 9.9 22.0----29.89- 56.8 61.9----
2023-06-01 05:12 pm SW 9.9 17.1----29.89- 56.7 61.9----
2023-06-01 05:06 pmWSW 8.9 15.9----29.89- 57.2 61.9----
2023-06-01 05:00 pm SW 7.0 13.0----29.89-0.02 57.2-----
2023-06-01 04:54 pm SW 8.0 17.1----29.89- 57.0-----